{"data":{"norad_id":65462,"intl_designator":"2025-195E","name":"STARLINK-35180","alt_names":[],"object_type":"PAYLOAD","status":"ACTIVE","operator":null,"country":"US","launch_date":"2025-09-03","launch_site_code":"AFETR","launch_vehicle":null,"mission":null,"orbit_class":"UNKNOWN","rcs_meters":null,"size_class":null,"mass_kg":null,"dimensions":null,"purposes":["comms"],"wikipedia_slug":null,"has_3d_model":false,"image_url":null,"decayed_at":null,"tle_current":{"epoch":"2026-05-25T00:36:23.738400Z","epoch_age_seconds":68922,"freshness":"FRESH","line1":"1 65462U 25195E   26145.02527475  .00034213  00000+0  10188-2 0  9997","line2":"2 65462  53.1591 263.4245 0001162  51.9180 308.1928 15.34409949 41687","mean_motion":15.34409949,"eccentricity":0.0001162,"inclination_deg":53.1591,"raan_deg":263.4245,"arg_perigee_deg":51.918,"mean_anomaly_deg":308.1928,"bstar":0.0010188,"rev_number":4168,"period_min":93.84714957945,"perigee_km":461.87876764239,"apogee_km":463.46857204206,"semimajor_km":6840.8106698422,"source":"CELESTRAK","updated_at":"2026-05-25T13:38:20.812304Z"}}}